FW9395 Weather Reports


Display with metric or nautical units.
time (UTC)temp
F
wind
direction
speed
MPH
gust
MPH
rain 1hr
in
rain 24hr
in
rain mn
in
humidity
%
barometer
mb
20260502203405 53 154 3.0 4.0 0.00 0.01 0.01 86 1010.7
20260502202900 53 222 4.0 5.0 0.00 0.01 0.01 85 1010.4
20260502202358 53 246 1.0 3.0 0.00 0.01 0.01 87 1010.7
20260502201856 53 235 1.0 1.0 0.00 0.01 0.01 88 1010.7
20260502201352 52 224 3.0 4.0 0.00 0.01 0.01 89 1010.7
20260502200848 51 155 3.0 4.0 0.00 0.01 0.01 91 1010.7
20260502200344 51 219 2.0 3.0 0.00 0.01 0.01 91 1011.0
20260502195842 50 223 2.0 3.0 0.00 0.01 0.01 91 1010.7
20260502195338 50 219 4.0 5.0 0.00 0.01 0.01 91 1011.0
20260502194836 50 202 5.0 7.0 0.00 0.01 0.01 91 1011.0
20260502194332 50 191 7.0 8.0 0.00 0.01 0.01 91 1011.4
20260502193828 50 212 7.0 8.0 0.00 0.01 0.01 91 1011.0
20260502193325 51 247 3.0 4.0 0.00 0.01 0.01 91 1011.0
20260502192821 51 180 5.0 5.0 0.00 0.01 0.01 91 1011.0
20260502192318 51 215 3.0 4.0 0.00 0.01 0.01 91 1011.4
20260502191815 51 241 1.0 1.0 0.00 0.01 0.01 92 1011.4
20260502191313 51 201 3.0 4.0 0.00 0.01 0.01 92 1011.4
20260502190810 51 262 1.0 1.0 0.00 0.01 0.01 92 1011.4
20260502190307 51 225 3.0 5.0 0.00 0.01 0.01 92 1011.4
20260502185803 51 215 3.0 4.0 0.00 0.01 0.01 92 1011.4
20260502185259 51 225 4.0 5.0 0.00 0.01 0.01 92 1011.7
20260502184756 51 209 3.0 4.0 0.00 0.01 0.01 92 1011.7
20260502184251 51 182 3.0 4.0 0.00 0.01 0.01 92 1011.7
20260502183748 51 217 3.0 4.0 0.00 0.01 0.01 92 1012.1
20260502183244 50 227 3.0 4.0 0.00 0.01 0.01 92 1011.7
20260502182739 50 257 0.0 1.0 0.00 0.01 0.01 92 1011.7
20260502182235 50 217 3.0 4.0 0.00 0.01 0.01 92 1011.7
20260502181732 50 170 2.0 4.0 0.00 0.01 0.01 92 1011.7
20260502181231 50 208 4.0 5.0 0.00 0.01 0.01 92 1012.1
20260502180728 50 213 5.0 5.0 0.00 0.01 0.01 92 1011.7
20260502180226 50 249 1.0 1.0 0.00 0.01 0.01 92 1011.4
20260502170150 50 246 2.0 4.0 0.01 0.01 0.01 91 1012.1
20260502164136 50 277 0.0 1.0 0.00 0.00 0.00 90 1012.1
20260502163632 50 281 1.0 1.0 0.00 0.00 0.00 90 1012.1
20260502163129 50 265 1.0 1.0 0.00 0.00 0.00 90 1012.1
20260502162626 51 282 3.0 3.0 0.00 0.00 0.00 90 1012.4
20260502162123 51 265 0.0 0.0 0.00 0.00 0.00 91 1012.1
20260502161620 50 207 3.0 4.0 0.00 0.00 0.00 91 1011.7
20260502161117 51 270 0.0 0.0 0.00 0.00 0.00 91 1012.1
20260502160615 50 243 2.0 3.0 0.00 0.00 0.00 91 1012.4
20260502160114 50 246 2.0 3.0 0.00 0.00 0.00 91 1012.1
20260502152028 50 213 1.0 1.0 0.00 0.00 0.00 92 1012.4
20260502151525 50 211 3.0 4.0 0.00 0.00 0.00 92 1012.4
20260502151022 49 213 2.0 3.0 0.00 0.00 0.00 91 1012.4
20260502150520 49 233 3.0 4.0 0.00 0.00 0.00 91 1012.4
20260502130404 51 271 0.0 0.0 0.00 0.00 0.00 85 1012.4
20260502123347 51 257 0.0 0.0 0.00 0.00 0.00 86 1012.7
20260502122844 51 270 1.0 3.0 0.00 0.00 0.00 86 1012.7
20260502122340 51 245 2.0 3.0 0.00 0.00 0.00 85 1012.7
20260502121839 51 278 4.0 4.0 0.00 0.00 0.00 85 1013.1
20260502121336 51 260 1.0 3.0 0.00 0.00 0.00 85 1013.1
20260502120833 51 338 3.0 3.0 0.00 0.00 0.00 85 1013.1
20260502120329 51 277 1.0 1.0 0.00 0.00 0.00 85 1013.1
20260502115826 51 282 1.0 1.0 0.00 0.00 0.00 85 1013.1
20260502115324 51 323 3.0 4.0 0.00 0.00 0.00 85 1012.7
20260502114820 51 284 0.0 0.0 0.00 0.00 0.00 85 1012.7
20260502114317 50 289 0.0 0.0 0.00 0.00 0.00 85 1012.4
20260502113814 50 269 0.0 0.0 0.00 0.00 0.00 86 1012.4
20260502113311 50 266 0.0 0.0 0.00 0.00 0.00 87 1012.7
20260502112810 50 267 0.0 0.0 0.00 0.00 0.00 87 1012.7
20260502112307 50 265 0.0 0.0 0.00 0.00 0.00 87 1013.1
20260502111804 49 262 0.0 0.0 0.00 0.00 0.00 88 1012.7
20260502111301 49 259 0.0 0.0 0.00 0.00 0.00 88 1012.7
20260502110758 49 265 0.0 0.0 0.00 0.00 0.00 88 1012.4
20260502110256 48 270 0.0 0.0 0.00 0.00 0.00 89 1012.4
20260502105754 48 269 0.0 0.0 0.00 0.00 0.00 89 1012.4
20260502105250 48 277 0.0 0.0 0.00 0.00 0.00 89 1012.4
20260502104748 48 277 0.0 0.0 0.00 0.00 0.00 89 1012.4
20260502104245 48 277 0.0 0.0 0.00 0.00 0.00 89 1012.4
20260502103743 47 277 0.0 0.0 0.00 0.00 0.00 89 1012.4
20260502103240 47 277 0.0 0.0 0.00 0.00 0.00 89 1012.1
20260502102738 47 277 0.0 0.0 0.00 0.00 0.00 90 1012.4
20260502102233 47 278 0.0 0.0 0.00 0.00 0.00 89 1012.4
20260502101732 47 278 0.0 0.0 0.00 0.00 0.00 89 1012.1
20260502101230 47 278 0.0 0.0 0.00 0.00 0.00 89 1012.1
20260502100727 47 275 0.0 0.0 0.00 0.00 0.00 89 1012.4
20260502100226 47 288 0.0 0.0 0.00 0.00 0.00 89 1012.1
20260502091200 48 272 0.0 0.0 0.00 0.00 0.00 86 1012.1
20260502090657 48 258 0.0 0.0 0.00 0.00 0.00 86 1012.1
20260502090154 48 269 0.0 0.0 0.00 0.00 0.00 86 1012.4
20260502071049 47 256 0.0 0.0 0.00 0.00 0.00 84 1012.1
20260502070547 47 257 0.0 0.0 0.00 0.00 0.00 84 1012.4
20260502070045 46 262 0.0 0.0 0.00 0.00 0.00 84 1012.4
20260502065543 46 261 0.0 0.0 0.00 0.00 0.00 84 1012.4
20260502065040 47 275 0.0 0.0 0.00 0.00 0.00 83 1012.1
20260502064539 47 279 0.0 0.0 0.00 0.00 0.00 83 1012.4
20260502064036 47 278 0.0 0.0 0.00 0.00 0.00 83 1012.4
20260502063533 47 278 0.0 0.0 0.00 0.00 0.00 83 1012.4
20260502063031 47 278 0.0 0.0 0.00 0.00 0.00 83 1012.1
20260502062528 47 278 0.0 0.0 0.00 0.00 0.00 82 1012.4
20260502062026 47 278 0.0 0.0 0.00 0.00 0.00 82 1012.4
20260502061524 47 279 0.0 0.0 0.00 0.00 0.00 82 1012.4
20260502061021 47 279 0.0 0.0 0.00 0.00 0.00 82 1012.4
20260502060515 47 280 0.0 0.0 0.00 0.00 0.00 81 1012.4
20260502060013 47 280 0.0 0.0 0.00 0.00 0.00 81 1012.4
20260502055510 48 277 0.0 0.0 0.00 0.00 0.00 81 1012.4
20260502055009 48 277 0.0 0.0 0.00 0.00 0.00 80 1012.4
20260502054507 48 278 0.0 0.0 0.00 0.00 0.00 79 1012.4
20260502054004 48 279 0.0 0.0 0.00 0.00 0.00 79 1012.7
20260502053501 48 278 0.0 0.0 0.00 0.00 0.00 78 1012.4
20260502052959 48 238 0.0 0.0 0.00 0.00 0.00 78 1012.7
20260502052457 49 244 0.0 0.0 0.00 0.00 0.00 78 1012.7
20260502051955 49 288 0.0 0.0 0.00 0.00 0.00 78 1012.7
20260502051453 49 288 0.0 0.0 0.00 0.00 0.00 78 1012.7
20260502050949 49 262 0.0 0.0 0.00 0.00 0.00 78 1013.1
20260502050446 49 257 0.0 1.0 0.00 0.00 0.00 78 1013.1
20260502045943 49 251 0.0 0.0 0.00 0.00 0.00 78 1013.1
20260502045440 48 273 0.0 0.0 0.00 0.00 0.00 78 1013.1
20260502044937 48 280 0.0 0.0 0.00 0.00 0.00 78 1013.1
20260502044432 49 283 0.0 0.0 0.00 0.00 0.00 77 1013.1
20260502043930 49 286 0.0 0.0 0.00 0.00 0.00 76 1013.1
20260502043428 49 288 0.0 0.0 0.00 0.00 0.00 76 1013.1
20260502042927 49 281 0.0 0.0 0.00 0.00 0.00 75 1012.7
20260502042424 49 284 0.0 0.0 0.00 0.00 0.00 76 1013.1
20260502041921 49 263 0.0 0.0 0.00 0.00 0.00 76 1012.7
20260502041419 49 266 0.0 0.0 0.00 0.00 0.00 76 1012.7
20260502040916 49 259 0.0 0.0 0.00 0.00 0.00 76 1012.7
20260502040413 49 250 0.0 1.0 0.00 0.00 0.00 75 1012.7
20260502035909 49 281 0.0 0.0 0.00 0.00 0.00 75 1013.1
20260502035405 49 260 0.0 0.0 0.00 0.00 0.00 75 1013.1
20260502034903 49 266 0.0 0.0 0.00 0.00 0.00 75 1013.1
20260502034402 49 253 1.0 1.0 0.00 0.00 0.00 75 1013.1
20260502033900 49 277 0.0 0.0 0.00 0.00 0.00 75 1013.1
20260502033357 49 277 0.0 0.0 0.00 0.00 0.00 74 1013.1
20260502032853 50 277 0.0 0.0 0.00 0.00 0.00 74 1013.1
20260502032349 50 269 0.0 0.0 0.00 0.00 0.00 74 1013.1
20260502031847 50 256 0.0 0.0 0.00 0.00 0.00 74 1013.1
20260502031345 50 274 0.0 1.0 0.00 0.00 0.00 74 1013.1
20260502030843 50 276 0.0 0.0 0.00 0.00 0.00 73 1013.1
20260502030341 50 266 0.0 1.0 0.00 0.00 0.00 73 1013.1
20260502025838 50 272 1.0 1.0 0.00 0.00 0.00 73 1013.1
20260502025336 50 289 0.0 0.0 0.00 0.00 0.00 73 1013.1
20260502024833 50 273 0.0 0.0 0.00 0.00 0.00 72 1013.1
20260502024331 50 281 0.0 0.0 0.00 0.00 0.00 72 1013.1
20260502023829 50 283 0.0 0.0 0.00 0.00 0.00 71 1013.1
20260502023326 50 262 0.0 1.0 0.00 0.00 0.00 71 1012.7
20260502022824 50 273 0.0 0.0 0.00 0.00 0.00 71 1013.1
20260502022320 51 266 1.0 1.0 0.00 0.00 0.00 70 1013.1
20260502021817 50 279 0.0 0.0 0.00 0.00 0.00 71 1013.1
20260502021314 51 293 1.0 1.0 0.00 0.00 0.00 70 1013.1
20260502020812 50 280 0.0 0.0 0.00 0.00 0.00 70 1012.7
20260502020309 50 276 1.0 1.0 0.00 0.00 0.00 70 1012.4
20260502015806 50 292 0.0 1.0 0.00 0.00 0.00 70 1012.7
20260502015305 51 286 0.0 1.0 0.00 0.00 0.00 70 1012.7
20260502014800 51 280 1.0 1.0 0.00 0.00 0.00 70 1013.1
20260502014257 51 275 0.0 1.0 0.00 0.00 0.00 70 1013.1
20260502013753 51 286 1.0 1.0 0.00 0.00 0.00 70 1012.7
20260502013249 51 272 3.0 4.0 0.00 0.00 0.00 70 1013.1
20260502012746 51 289 2.0 3.0 0.00 0.00 0.00 69 1012.7
20260502012243 51 282 0.0 0.0 0.00 0.00 0.00 69 1013.1
20260502011741 51 271 2.0 3.0 0.00 0.00 0.00 69 1012.7
20260502011236 51 275 3.0 4.0 0.00 0.00 0.00 68 1012.7
20260502010734 52 262 7.0 9.0 0.00 0.00 0.00 68 1012.7
20260502010230 52 271 4.0 7.0 0.00 0.00 0.00 68 1012.7
20260502005727 52 257 5.0 7.0 0.00 0.00 0.00 68 1012.7
20260502005225 52 283 0.0 1.0 0.00 0.00 0.00 68 1012.4
20260502004721 52 272 4.0 4.0 0.00 0.00 0.00 67 1012.4
20260502004218 52 283 4.0 4.0 0.00 0.00 0.00 67 1012.7
20260502003716 52 268 3.0 5.0 0.00 0.00 0.00 66 1012.4
20260502003213 52 286 4.0 5.0 0.00 0.00 0.00 65 1012.4
20260502002708 53 277 7.0 9.0 0.00 0.00 0.00 65 1012.1
20260502002207 53 278 1.0 3.0 0.00 0.00 0.00 65 1012.1
20260502001703 53 258 3.0 3.0 0.00 0.00 0.00 65 1011.7
20260502001201 53 275 0.0 0.0 0.00 0.00 0.00 66 1012.1
20260502000659 53 280 3.0 4.0 0.00 0.00 0.00 66 1011.7
20260502000156 53 269 3.0 4.0 0.00 0.00 0.00 66 1011.4
20260501235652 53 280 2.0 3.0 0.00 0.00 0.00 67 1011.4
20260501235148 53 274 3.0 4.0 0.00 0.00 0.00 66 1011.4
20260501234644 54 236 4.0 4.0 0.00 0.00 0.00 65 1011.0
20260501234141 54 285 2.0 4.0 0.00 0.00 0.00 64 1011.4
20260501233639 54 257 1.0 3.0 0.00 0.00 0.00 63 1011.4
20260501233136 55 286 3.0 4.0 0.00 0.00 0.00 62 1011.0
20260501232632 55 274 1.0 1.0 0.00 0.00 0.00 60 1011.0
20260501232130 55 271 3.0 4.0 0.00 0.00 0.00 59 1011.0
20260501231627 56 271 1.0 1.0 0.00 0.00 0.00 56 1011.0
20260501231125 57 292 4.0 5.0 0.00 0.00 0.00 52 1010.7
20260501230624 57 265 1.0 1.0 0.00 0.00 0.00 45 1011.0
20260501230121 57 246 3.0 4.0 0.00 0.00 0.00 43 1010.7
20260501225619 58 289 3.0 5.0 0.00 0.00 0.00 42 1010.4
20260501225115 58 278 1.0 1.0 0.00 0.00 0.00 41 1010.4
20260501224612 58 288 1.0 1.0 0.00 0.00 0.00 42 1010.7
20260501224109 58 255 2.0 3.0 0.00 0.00 0.00 41 1010.4
20260501223606 58 268 4.0 4.0 0.00 0.00 0.00 41 1010.4
20260501223102 58 278 4.0 5.0 0.00 0.00 0.00 40 1010.4
20260501222558 58 260 4.0 5.0 0.00 0.00 0.00 40 1010.4
20260501222055 58 284 2.0 5.0 0.00 0.00 0.00 40 1010.7
20260501221552 59 273 5.0 7.0 0.00 0.00 0.00 40 1010.4
20260501221049 59 283 3.0 4.0 0.00 0.00 0.00 40 1010.7
20260501220547 59 280 8.0 11.0 0.00 0.00 0.00 39 1010.4
20260501220044 60 278 8.0 11.0 0.00 0.00 0.00 38 1010.4
20260501215540 60 265 2.0 4.0 0.00 0.00 0.00 39 1010.4
20260501215035 59 279 4.0 5.0 0.00 0.00 0.00 39 1010.0
20260501214531 59 253 2.0 4.0 0.00 0.00 0.00 39 1010.4
20260501214027 60 257 6.0 8.0 0.00 0.00 0.00 40 1010.4
20260501213524 59 287 1.0 1.0 0.00 0.00 0.00 40 1010.4
20260501213020 60 272 8.0 11.0 0.00 0.00 0.00 40 1010.4
20260501212516 60 273 7.0 9.0 0.00 0.00 0.00 39 1010.4
20260501212014 59 270 5.0 8.0 0.00 0.00 0.00 39 1010.0
20260501211510 60 276 1.0 3.0 0.00 0.00 0.00 40 1010.4
20260501211009 59 284 1.0 3.0 0.00 0.00 0.00 40 1010.4
20260501210504 59 300 6.0 8.0 0.00 0.00 0.00 39 1010.0
20260501210001 59 293 6.0 8.0 0.00 0.00 0.00 40 1010.4
20260501205458 60 265 3.0 4.0 0.00 0.00 0.00 40 1010.7
20260501204955 59 283 7.0 9.0 0.00 0.00 0.00 41 1010.4
20260501204450 58 327 4.0 4.0 0.00 0.00 0.00 42 1010.4
20260501203948 59 288 9.0 11.0 0.00 0.00 0.00 42 1010.0
20260501203444 59 274 7.0 12.0 0.00 0.00 0.00 40 1010.4